User: anonymous   Login
Location: Brede
(50.9167°N, 0.6000°E)
Time: 23:21:53
(UTC+00:00)
Language:

Transit 4A - Orbit

View from above orbital plane
View from above orbital plane
View from above satellite
View from above satellite

Ground track
Ground track

The orbit data is extracted from the following two-line orbital elements,

1   116U 61015A   20340.21400092 -.00000056 +00000-0 +15777-4 0  9991
2   116 066.8079 150.7653 0081859 250.7612 108.4598 13.91779691015595
Epoch (UTC): 05 December 2020 05:08:09
Eccentricity: 0.0081859
inclination: 66.8079°
perigee height: 862 km
apogee height: 982 km
right ascension of ascending node: 150.7653°
argument of perigee: 250.7612°
revolutions per day: 13.91779691
mean anomaly at epoch: 108.4598°
orbit number at epoch: 1559

The dashed part of the orbit path shows where the satellite is in the earth's shadow,  

DLR